When you browse on this site, cookies collect data to enhance your experience and personalize the content and advertising you see.
Visit our Privacy Policy to learn more. By continuing to use the site, you agree to this use of cookies and data.
  • In Portugal
  • List of Countries
  • For 7 days
  • Water Temperature
  • Satellite Maps
  • Weather Map
  • Weather Widgets
  • user-avatar
    Login

    Hourly Weather Czarze

    Today, 19 February, Tuesday

    Time Temperature Precipitation Wind Pressure Humidity
    00:00 +3°C° 0 mm 2 mps 748 mmHg 85%
    01:00 +3°C° 0 mm 2 mps 747 mmHg 85%
    02:00 +3°C° 0 mm 2 mps 747 mmHg 86%
    03:00 +2°C° 0 mm 2 mps 746 mmHg 86%
    04:00 +1°C° 0 mm 3 mps 746 mmHg 87%
    05:00 +1°C° 0 mm 3 mps 745 mmHg 87%
    06:00 +1°C° 0 mm 3 mps 745 mmHg 87%
    07:00 +1°C° 0 mm 3 mps 745 mmHg 87%
    08:00 +1°C° 0 mm 4 mps 744 mmHg 84%
    09:00 +4°C° 0 mm 4 mps 744 mmHg 80%
    10:00 +5°C° 0 mm 5 mps 744 mmHg 77%
    11:00 +6°C° 0 mm 5 mps 744 mmHg 75%
    12:00 +7°C° 0 mm 5 mps 744 mmHg 72%
    13:00 +8°C° 0 mm 5 mps 744 mmHg 70%
    14:00 +7°C° 0.2 mm 5 mps 744 mmHg 75%
    15:00 +6°C° 0.2 mm 5 mps 744 mmHg 79%
    16:00 +6°C° 0.2 mm 4 mps 744 mmHg 84%
    17:00 +5°C° 0.1 mm 5 mps 744 mmHg 82%
    18:00 +5°C° 0.1 mm 5 mps 744 mmHg 81%
    19:00 +5°C° 0.1 mm 5 mps 745 mmHg 80%
    20:00 +5°C° 0 mm 5 mps 744 mmHg 81%
    21:00 +3°C° 0 mm 5 mps 744 mmHg 82%
    22:00 +3°C° 0 mm 5 mps 744 mmHg 83%
    23:00 +3°C° 0.1 mm 5 mps 744 mmHg 82%

    Tomorrow, 20 February, Wednesday

    Time Temperature Precipitation Wind Pressure Humidity
    00:00 +3°C° 0.1 mm 5 mps 745 mmHg 82%
    01:00 +3°C° 0.1 mm 6 mps 745 mmHg 82%
    02:00 +3°C° 0.1 mm 6 mps 745 mmHg 81%
    03:00 +3°C° 0.1 mm 6 mps 745 mmHg 81%
    04:00 +2°C° 0.1 mm 6 mps 745 mmHg 80%
    05:00 +2°C° 0.1 mm 6 mps 745 mmHg 80%
    06:00 +2°C° 0.1 mm 6 mps 745 mmHg 79%
    07:00 +2°C° 0.1 mm 6 mps 746 mmHg 78%
    08:00 +2°C° 0.1 mm 6 mps 746 mmHg 77%
    09:00 +2°C° 0.1 mm 6 mps 747 mmHg 77%
    10:00 +2°C° 0.1 mm 6 mps 747 mmHg 76%
    11:00 +3°C° 0 mm 6 mps 748 mmHg 74%
    12:00 +3°C° 0 mm 6 mps 748 mmHg 73%
    13:00 +3°C° 0 mm 6 mps 749 mmHg 71%
    14:00 +3°C° 0 mm 6 mps 749 mmHg 71%
    15:00 +3°C° 0 mm 6 mps 749 mmHg 71%
    16:00 +3°C° 0 mm 5 mps 749 mmHg 71%
    17:00 +3°C° 0 mm 5 mps 750 mmHg 75%
    18:00 +4°C° 0 mm 4 mps 750 mmHg 79%
    19:00 +3°C° 0 mm 4 mps 750 mmHg 83%
    20:00 +3°C° 0 mm 3 mps 750 mmHg 86%
    21:00 +2°C° 0 mm 3 mps 750 mmHg 90%
    22:00 +3°C° 0 mm 2 mps 751 mmHg 93%
    23:00 +3°C° 0.2 mm 2 mps 750 mmHg 93%

    Day after tomorrow, 21 February, Thursday

    Time Temperature Precipitation Wind Pressure Humidity
    00:00 +4°C° 0.2 mm 2 mps 750 mmHg 94%
    01:00 +4°C° 0.2 mm 2 mps 750 mmHg 95%
    02:00 +3°C° 0.2 mm 3 mps 750 mmHg 95%
    03:00 +3°C° 0.2 mm 3 mps 750 mmHg 94%
    04:00 +4°C° 0.2 mm 3 mps 750 mmHg 94%
    05:00 +4°C° 0.2 mm 3 mps 749 mmHg 94%
    06:00 +4°C° 0.2 mm 3 mps 749 mmHg 93%
    07:00 +4°C° 0.2 mm 4 mps 749 mmHg 93%
    08:00 +4°C° 0.4 mm 4 mps 749 mmHg 92%
    09:00 +4°C° 0.4 mm 4 mps 749 mmHg 92%
    10:00 +5°C° 0.4 mm 4 mps 749 mmHg 92%
    11:00 +5°C° 0.5 mm 4 mps 749 mmHg 91%
    12:00 +5°C° 0.5 mm 4 mps 749 mmHg 90%
    13:00 +5°C° 0.5 mm 5 mps 749 mmHg 88%
    14:00 +5°C° 0.1 mm 4 mps 749 mmHg 89%
    15:00 +5°C° 0.1 mm 4 mps 749 mmHg 89%
    16:00 +6°C° 0.1 mm 4 mps 749 mmHg 89%
    17:00 +5°C° 0.1 mm 4 mps 750 mmHg 90%
    18:00 +5°C° 0.1 mm 4 mps 750 mmHg 91%
    19:00 +5°C° 0.1 mm 4 mps 751 mmHg 93%
    20:00 +5°C° 0.1 mm 4 mps 751 mmHg 92%
    21:00 +4°C° 0.1 mm 3 mps 752 mmHg 92%
    22:00 +4°C° 0.1 mm 3 mps 752 mmHg 92%
    23:00 +3°C° 0.3 mm 3 mps 753 mmHg 90%

    22 February, Friday

    Time Temperature Precipitation Wind Pressure Humidity
    00:00 0°C° 0.3 mm 4 mps 754 mmHg 87%
    01:00 -1°C° 0.3 mm 4 mps 755 mmHg 84%
    02:00 -1°C° 0 mm 4 mps 756 mmHg 82%
    03:00 -1°C° 0 mm 4 mps 757 mmHg 80%
    04:00 -2°C° 0 mm 4 mps 757 mmHg 79%
    05:00 -2°C° 0 mm 4 mps 759 mmHg 77%
    06:00 -2°C° 0 mm 4 mps 760 mmHg 75%
    07:00 -2°C° 0 mm 4 mps 761 mmHg 74%
    08:00 -2°C° 0 mm 4 mps 762 mmHg 70%
    09:00 -2°C° 0 mm 4 mps 762 mmHg 67%
    10:00 -2°C° 0 mm 4 mps 763 mmHg 64%
    11:00 -1°C° 0 mm 4 mps 764 mmHg 60%
    12:00 -1°C° 0 mm 4 mps 764 mmHg 55%
    13:00 -1°C° 0 mm 4 mps 765 mmHg 51%
    14:00 0°C° 0 mm 3 mps 765 mmHg 50%
    15:00 0°C° 0 mm 3 mps 766 mmHg 49%
    16:00 -1°C° 0 mm 3 mps 766 mmHg 48%
    17:00 -1°C° 0 mm 2 mps 766 mmHg 52%
    18:00 -2°C° 0 mm 2 mps 767 mmHg 56%
    19:00 -1°C° 0 mm 1 mps 767 mmHg 60%
    20:00 -1°C° 0 mm 1 mps 767 mmHg 60%
    21:00 -1°C° 0 mm 1 mps 768 mmHg 59%
    22:00 -2°C° 0 mm 1 mps 768 mmHg 59%
    23:00 -1°C° 0 mm 1 mps 768 mmHg 58%

    23 February, Saturday

    Time Temperature Precipitation Wind Pressure Humidity
    00:00 -1°C° 0 mm 1 mps 768 mmHg 56%
    01:00 -1°C° 0 mm 1 mps 768 mmHg 55%
    02:00 -3°C° 0 mm 2 mps 767 mmHg 54%
    03:00 -3°C° 0 mm 2 mps 767 mmHg 53%
    04:00 -3°C° 0 mm 2 mps 767 mmHg 52%
    05:00 -3°C° 0 mm 2 mps 767 mmHg 52%
    06:00 -3°C° 0 mm 2 mps 766 mmHg 53%
    07:00 -3°C° 0 mm 2 mps 766 mmHg 53%
    08:00 -2°C° 0 mm 2 mps 766 mmHg 50%
    09:00 -1°C° 0 mm 3 mps 766 mmHg 46%
    10:00 0°C° 0 mm 3 mps 766 mmHg 43%
    11:00 +1°C° 0 mm 3 mps 766 mmHg 44%
    12:00 +2°C° 0 mm 3 mps 765 mmHg 44%
    13:00 +2°C° 0 mm 3 mps 765 mmHg 44%
    14:00 +2°C° 0 mm 3 mps 765 mmHg 49%
    15:00 +2°C° 0 mm 3 mps 764 mmHg 54%
    16:00 +2°C° 0 mm 3 mps 764 mmHg 59%
    17:00 +2°C° 0 mm 2 mps 763 mmHg 66%
    18:00 +1°C° 0 mm 2 mps 763 mmHg 73%
    19:00 -1°C° 0 mm 2 mps 763 mmHg 80%
    20:00 +1°C° 0 mm 2 mps 763 mmHg 84%
    21:00 +1°C° 0 mm 2 mps 763 mmHg 88%
    22:00 +2°C° 0 mm 1 mps 763 mmHg 91%
    23:00 +2°C° 0 mm 1 mps 763 mmHg 93%

    24 February, Sunday

    Time Temperature Precipitation Wind Pressure Humidity
    00:00 +1°C° 0 mm 2 mps 763 mmHg 95%
    01:00 +1°C° 0 mm 2 mps 763 mmHg 96%
    02:00 +2°C° 0 mm 1 mps 763 mmHg 97%
    03:00 +2°C° 0 mm 1 mps 763 mmHg 97%
    04:00 +2°C° 0 mm 1 mps 763 mmHg 97%
    05:00 +2°C° 0 mm 1 mps 763 mmHg 97%
    06:00 +2°C° 0 mm 1 mps 763 mmHg 97%
    07:00 +3°C° 0 mm 1 mps 763 mmHg 97%
    08:00 +3°C° 0 mm 1 mps 764 mmHg 95%
    09:00 +4°C° 0 mm 1 mps 764 mmHg 94%
    10:00 +4°C° 0 mm 1 mps 764 mmHg 92%
    11:00 +4°C° 0 mm 2 mps 764 mmHg 91%
    12:00 +4°C° 0 mm 2 mps 764 mmHg 91%
    13:00 +4°C° 0 mm 2 mps 764 mmHg 90%
    14:00 +4°C° 0 mm 2 mps 763 mmHg 91%
    15:00 +4°C° 0 mm 2 mps 763 mmHg 92%
    16:00 +4°C° 0 mm 2 mps 763 mmHg 92%
    17:00 +4°C° 0 mm 2 mps 762 mmHg 93%
    18:00 +4°C° 0 mm 2 mps 762 mmHg 94%
    19:00 +3°C° 0 mm 2 mps 762 mmHg 95%
    20:00 +2°C° 0 mm 3 mps 761 mmHg 95%
    21:00 +2°C° 0 mm 3 mps 761 mmHg 95%
    22:00 +2°C° 0 mm 3 mps 761 mmHg 95%
    23:00 +2°C° 0 mm 3 mps 761 mmHg 95%
    Show more